Location: Biharia
(46.4333°N, 22.8000°E)
Time: 00:17:23
(UTC+00:00)

CSL-04 Debris - Pass Details

Date: 16 October 2021
Orbit: 827 x 847 km, 98.9° (Epoch: 05 December)

Event Time Altitude Azimuth Distance (km) Brightness Sun altitude
Exits shadow 17:26:58 19° 147° (SSE) 1,863 5.6 -19.1°
Maximum altitude 17:30:47 64° 71° (ENE) 919 4.1 -19.8°
Drops below altitude 10° 17:36:08 10° 351° (N) 2,449 6.8 -20.7°
Sets 17:38:31 0° 349° (NNW) 3,389 7.6 -21.1°
